Norfolk, NE

10:50 AM CDT on June 26, 2017 (GMT -0500)
Stefan Memorial

Weather History for KOFK - January, 2014

Change the Weather History Date:

Friday, January 10, 2014

  Actual Average Record
Temperature  
Mean Temperature 34 °F 22 °F  
Max Temperature 40 °F 33 °F 70 °F (1990)
Min Temperature 27 °F 12 °F -23 °F (1982)
Degree Days  
Heating Degree Days 31 43  
Month to date heating degree days 516 430  
Since 1 July heating degree days 3278 3136  
Cooling Degree Days 0 0  
Month to date cooling degree days 0 0  
Year to date cooling degree days 0 0  
Moisture  
Dew Point 28 °F    
Average Humidity 82    
Maximum Humidity 100    
Minimum Humidity 64    
Precipitation  
Precipitation 0.00 in 0.01 in 0.28 in (1975)
Month to date precipitation 0.13 0.18  
Year to date precipitation 0.13 0.18  
Snow  
Snow 0.00 in 0.20 in - ()
Month to date snowfall 1.0 1.9  
Since 1 July snowfall 4.3 12.8  
Snow Depth 0.00 in    
Sea Level Pressure  
Sea Level Pressure 29.65 in    
Wind  
Wind Speed 9 mph (SSW)    
Max Wind Speed 17 mph    
Max Gust Speed 21 mph    
Visibility 5 miles    
Events      
T = Trace of Precipitation, MM = Missing Value Source: NWS Daily Summary

Daily Weather History Graph

Daily Weather History Graph

Search for Another Location

Airport or City:

Trip Planner

Search our weather history database for the weather conditions in past years. The results will help you decide how hot, cold, wet, or windy it might be!

Date:

Astronomy

Jan. 10, 2014 Rise Set
Actual Time 7:56 AM CST 5:17 PM CST
Civil Twilight 7:25 AM CST 5:49 PM CST
Nautical Twilight 6:51 AM CST 6:23 PM CST
Astronomical Twilight 6:17 AM CST 6:57 PM CST
Moon 1:24 PM CST (1/10) 3:04 AM CST (1/10)
Length of Visible Light 10h 23m
Length of Day
9h 20m
Waxing Gibbous, 75% of the Moon is Illuminated
Jan 10
Waxing Gibbous
Jan 15
Full
Jan 23
Last Quarter
Jan 30
New
Feb 6
First Quarter

Hourly Weather History & Observations

Time (CST) Temp. Windchill Dew Point Humidity Pressure Visibility Wind Dir Wind Speed Gust Speed Precip Events Conditions
12:56 AM 30.9 °F 21.7 °F 26.1 °F 82% 29.83 in 7.0 mi South 11.5 mph - N/A   Overcast
1:56 AM 30.9 °F 22.2 °F 27.0 °F 85% 29.81 in 6.0 mi South 10.4 mph - N/A   Overcast
2:38 AM 30.9 °F 19.8 °F 27.0 °F 85% 29.74 in 5.0 mi South 16.1 mph - N/A   Overcast
2:56 AM 30.9 °F 21.7 °F 27.0 °F 85% 29.78 in 4.0 mi South 11.5 mph - N/A   Overcast
3:47 AM 28.9 °F 18.6 °F 27.0 °F 92% 29.72 in 2.0 mi South 12.7 mph - N/A   Overcast
3:56 AM 28.9 °F 17.7 °F 27.0 °F 92% 29.76 in 2.0 mi South 15.0 mph - N/A   Overcast
4:06 AM 28.9 °F 18.6 °F 27.0 °F 92% 29.71 in 1.8 mi SSE 12.7 mph - N/A   Overcast
4:56 AM 28.9 °F 18.2 °F 27.0 °F 92% 29.74 in 1.5 mi South 13.8 mph - N/A   Overcast
5:56 AM 30.0 °F 21.7 °F 28.0 °F 92% 29.71 in 1.5 mi South 9.2 mph - N/A   Overcast
6:28 AM 30.0 °F 21.7 °F 28.9 °F 96% 29.65 in 2.0 mi South 9.2 mph - N/A   Overcast
6:56 AM 30.9 °F 22.8 °F 28.9 °F 92% 29.69 in 2.0 mi South 9.2 mph - N/A   Overcast
7:56 AM 30.9 °F 23.5 °F 30.0 °F 96% 29.68 in 2.0 mi South 8.1 mph - N/A   Overcast
8:26 AM 30.9 °F 22.2 °F 30.0 °F 96% 29.62 in 1.5 mi South 10.4 mph - N/A   Overcast
8:56 AM 32.0 °F 23.6 °F 30.0 °F 92% 29.68 in 1.8 mi South 10.4 mph - N/A   Overcast
9:09 AM 32.0 °F 24.2 °F 30.0 °F 92% 29.63 in 2.0 mi SSW 9.2 mph - N/A   Overcast
9:27 AM 32.0 °F 23.6 °F 30.0 °F 92% 29.63 in 3.0 mi South 10.4 mph - N/A   Overcast
9:56 AM 32.0 °F 24.2 °F 30.0 °F 92% 29.66 in 3.0 mi South 9.2 mph - N/A   Overcast
10:56 AM 33.1 °F 26.9 °F 30.9 °F 92% 29.64 in 3.0 mi South 6.9 mph - N/A   Overcast
11:56 AM 33.1 °F 25.5 °F 30.9 °F 92% 29.60 in 4.0 mi South 9.2 mph - N/A   Overcast
12:04 PM 33.1 °F 26.1 °F 30.9 °F 92% 29.55 in 4.0 mi SSW 8.1 mph - N/A   Overcast
12:56 PM 34.0 °F 28.0 °F 30.9 °F 89% 29.56 in 5.0 mi SW 6.9 mph - N/A   Overcast
1:56 PM 37.0 °F 31.0 °F 30.0 °F 76% 29.54 in 8.0 mi West 8.1 mph - N/A   Overcast
2:34 PM 37.9 °F 34.4 °F 30.0 °F 73% 29.51 in 8.0 mi WNW 4.6 mph - N/A   Mostly Cloudy
2:56 PM 39.0 °F 35.7 °F 30.0 °F 70% 29.54 in 9.0 mi NNW 4.6 mph - N/A   Scattered Clouds
3:56 PM 39.0 °F - 28.9 °F 67% 29.56 in 10.0 mi Calm Calm - N/A   Overcast
4:56 PM 33.1 °F 28.7 °F 28.9 °F 85% 29.58 in 6.0 mi ESE 4.6 mph - N/A   Partly Cloudy
5:56 PM 30.9 °F 27.5 °F 28.9 °F 92% 29.59 in 6.0 mi WNW 3.5 mph - N/A   Scattered Clouds
6:56 PM 30.9 °F 24.3 °F 26.1 °F 82% 29.61 in 10.0 mi WNW 6.9 mph - N/A   Partly Cloudy
7:56 PM 30.0 °F 23.2 °F 24.1 °F 79% 29.62 in 10.0 mi WNW 6.9 mph - N/A   Clear
8:56 PM 30.0 °F 20.5 °F 24.1 °F 79% 29.63 in 10.0 mi West 11.5 mph - N/A   Clear
9:56 PM 28.9 °F 20.4 °F 23.0 °F 78% 29.64 in 10.0 mi West 9.2 mph - N/A   Clear
10:56 PM 28.0 °F 19.3 °F 23.0 °F 81% 29.65 in 10.0 mi West 9.2 mph - N/A   Clear
11:56 PM 27.0 °F 17.3 °F 21.9 °F 81% 29.67 in 10.0 mi West 10.4 mph - N/A   Clear